This is the latest recevied weather packets stored in our database for station/object KD5GAT-51. If no packets are shown the sender has not sent any weather packets the latest 10 day(s).
| Time | Temp. | Humidity | Pressure | Rain* | Wind** | Luminosity | Snow |
|---|---|---|---|---|---|---|---|
| 1777480832 | 27.22° C | 100% | 1014.6 hPa | - | - | - | - |
| 1777479932 | 27.22° C | 100% | 1014.2 hPa | - | - | - | - |
| 1777479032 | 27.78° C | 100% | 1014.1 hPa | - | - | - | - |
| 1777478131 | 27.78° C | 100% | 1014.5 hPa | - | - | - | - |
| 1777477231 | 27.22° C | 100% | 1014.5 hPa | - | - | - | - |
| 1777476331 | 27.22° C | 100% | 1015 hPa | - | - | - | - |
| 1777475431 | 26.67° C | 100% | 1014.9 hPa | - | - | - | - |
| 1777474531 | 26.11° C | 100% | 1014.8 hPa | - | - | - | - |
| 1777473630 | 26.11° C | 100% | 1014.5 hPa | - | - | - | - |
| 1777472730 | 25.56° C | 100% | 1014.5 hPa | - | - | - | - |
| 1777471830 | 25.56° C | 100% | 1014.3 hPa | - | - | - | - |
| 1777470930 | 25.56° C | 100% | 1014.3 hPa | - | - | - | - |
| 1777470030 | 25.56° C | 100% | 1014.2 hPa | - | - | - | - |
| 1777469129 | 25.56° C | 100% | 1014.1 hPa | - | - | - | - |
| 1777468229 | 25° C | 100% | 1014.2 hPa | - | - | - | - |
| 1777467329 | 25° C | 100% | 1014.2 hPa | - | - | - | - |
| 1777466429 | 25° C | 100% | 1014.1 hPa | - | - | - | - |
| 1777465529 | 25° C | 100% | 1013.4 hPa | - | - | - | - |
| 1777464628 | 25° C | 100% | 1012.9 hPa | - | - | - | - |
| 1777463728 | 25° C | 100% | 1013.1 hPa | - | - | - | - |
| 1777462828 | 25° C | 100% | 1013 hPa | - | - | - | - |
| 1777461928 | 25° C | 100% | 1012.3 hPa | - | - | - | - |
| 1777461028 | 25° C | 100% | 1012.5 hPa | - | - | - | - |
| 1777460127 | 25° C | 100% | 1012.6 hPa | - | - | - | - |
| 1777459227 | 25° C | 100% | 1012.8 hPa | - | - | - | - |
* Rain since midnight (hover to see other rain measurements)
** Current wind speed in m/s (hover to see current wind gust speed)